QPF
0.00 0.00 0.00 0.00 0.00 0.00 0.00 0.00 0.00 0.00 0.00 0.00 0.00 0.00 0.01 0.16 0.10 0.08 0.07 0.06 0.25 0.53 0.15 0.03 0.13 0.49 0.30 0.59 0.48 0.24 0.06 0.00 0.00 0.00 0.00 0.00 0.00 0.00 0.00 0.00 0.00 0.00 0.00 0.00
0.00 0.00 0.00 0.00 0.00 0.00 0.00 0.00 0.00 0.00 0.00 0.00 0.00 0.00 0.00 0.02 0.01 0.02 0.05 0.15 0.39 0.25 0.04 0.02 0.04 0.23 0.26 0.28 0.47 0.26 0.15 0.05 0.00 0.00 0.00 0.00 0.00 0.00 0.00 0.00 0.00 0.00 0.00 0.00
0.00 0.00 0.00 0.00 0.00 0.00 0.00 0.00 0.00 0.00 0.00 0.00 0.00 0.00 0.00 0.00 0.00 0.00 0.05 0.27 0.31 0.26 0.06 0.01 0.02 0.06 0.03 0.05 0.22 0.34 0.21 0.07 0.00 0.00 0.00 0.00 0.00 0.00 0.00 0.00 0.00 0.00 0.00 0.00
0.00 0.00 0.00 0.00 0.00 0.00 0.00 0.00 0.00 0.00 0.00 0.00 0.00 0.00 0.00 0.00 0.00 0.00 0.06 0.26 0.35 0.43 0.12 0.02 0.00 0.00 0.02 0.02 0.03 0.11 0.22 0.24 0.06 0.00 0.00 0.00 0.00 0.00 0.00 0.00 0.00 0.00 0.00 0.00
0.00 0.00 0.00 0.00 0.00 0.00 0.00 0.00 0.00 0.00 0.00 0.00 0.00 0.00 0.00 0.00 0.00 0.00 0.00 0.07 0.11 0.24 0.14 0.08 0.06 0.01 0.00 0.00 0.01 0.06 0.11 0.24 0.16 0.06 0.00 0.00 0.00 0.00 0.00 0.00 0.00 0.00 0.00 0.00
0.00 0.00 0.00 0.00 0.00 0.00 0.00 0.00 0.00 0.00 0.00 0.00 0.00 0.00 0.00 0.00 0.00 0.00 0.00 0.00 0.00 0.00 0.02 0.03 0.02 0.01 0.02 0.01 0.00 0.00 0.01 0.05 0.10 0.09 0.03 0.00 0.00 0.00 0.00 0.00 0.00 0.00 0.00 0.00
0.00 0.00 0.00 0.00 0.00 0.00 0.00 0.00 0.00 0.00 0.00 0.00 0.00 0.00 0.00 0.00 0.00 0.00 0.00 0.00 0.00 0.00 0.00 0.00 0.01 0.02 0.05 0.12 0.10 0.09 0.01 0.00 0.03 0.11 0.13 0.07 0.01 0.00 0.00 0.00 0.00 0.00 0.00 0.00
0.00 0.00 0.00 0.00 0.00 0.00 0.00 0.00 0.00 0.00 0.00 0.00 0.00 0.00 0.00 0.00 0.00 0.00 0.00 0.00 0.00 0.00 0.00 0.00 0.00 0.00 0.00 0.03 0.12 0.09 0.22 0.11 0.02 0.02 0.07 0.13 0.08 0.01 0.00 0.00 0.00 0.00 0.00 0.00
0.00 0.00 0.00 0.00 0.00 0.00 0.00 0.00 0.00 0.00 0.00 0.00 0.00 0.00 0.00 0.00 0.00 0.00 0.00 0.00 0.00 0.00 0.00 0.00 0.00 0.00 0.00 0.00 0.00 0.00 0.06 0.19 0.20 0.26 0.18 0.10 0.12 0.11 0.04 0.01 0.00 0.00 0.00 0.00
0.00 0.00 0.00 0.00 0.00 0.00 0.00 0.00 0.00 0.00 0.00 0.00 0.00 0.00 0.00 0.00 0.00 0.00 0.00 0.00 0.00 0.00 0.00 0.00 0.00 0.00 0.00 0.00 0.00 0.00 0.00 0.00 0.01 0.03 0.13 0.16 0.19 0.20 0.19 0.15 0.05 0.02 0.02 0.00
0.00 0.00 0.00 0.00 0.00 0.00 0.00 0.00 0.00 0.00 0.00 0.00 0.00 0.00 0.00 0.00 0.00 0.00 0.00 0.00 0.00 0.00 0.00 0.00 0.00 0.00 0.00 0.00 0.00 0.00 0.00 0.00 0.00 0.00 0.00 0.00 0.01 0.02 0.05 0.11 0.12 0.09 0.07 0.08
0.00 0.00 0.00 0.00 0.00 0.00 0.00 0.00 0.00 0.00 0.00 0.00 0.00 0.00 0.00 0.00 0.00 0.00 0.00 0.00 0.00 0.00 0.00 0.00 0.00 0.00 0.00 0.00 0.00 0.00 0.00 0.00 0.00 0.00 0.00 0.00 0.00 0.00 0.00 0.00 0.00 0.00 0.02 0.05
0.00 0.00 0.00 0.00 0.00 0.00 0.00 0.00 0.00 0.00 0.00 0.00 0.00 0.00 0.00 0.00 0.00 0.00 0.00 0.00 0.00 0.00 0.00 0.00 0.00 0.00 0.00 0.00 0.00 0.00 0.00 0.00 0.00 0.00 0.00 0.00 0.00 0.00 0.00 0.00 0.00 0.00 0.00 0.00
0.00 0.00 0.00 0.00 0.00 0.00 0.00 0.00 0.00 0.00 0.00 0.00 0.00 0.00 0.00 0.00 0.00 0.00 0.00 0.00 0.00 0.00 0.00 0.00 0.00 0.00 0.00 0.00 0.00 0.00 0.00 0.00 0.00 0.00 0.00 0.00 0.00 0.00 0.00 0.00 0.00 0.00 0.00 0.00
0.00 0.00 0.00 0.00 0.00 0.00 0.00 0.00 0.00 0.00 0.00 0.00 0.00 0.00 0.00 0.00 0.00 0.00 0.00 0.00 0.00 0.00 0.00 0.00 0.00 0.00 0.00 0.00 0.00 0.00 0.00 0.00 0.00 0.00 0.00 0.00 0.00 0.00 0.00 0.00 0.00 0.00 0.00 0.00
0.00 0.00 0.00 0.00 0.00 0.00 0.00 0.00 0.00 0.00 0.00 0.00 0.00 0.00 0.00 0.00 0.00 0.00 0.00 0.00 0.00 0.00 0.00 0.00 0.00 0.00 0.00 0.00 0.00 0.00 0.00 0.00 0.00 0.00 0.00 0.00 0.00 0.00 0.00 0.00 0.00 0.00 0.00 0.00
0.00 0.00 0.00 0.00 0.00 0.00 0.00 0.00 0.00 0.00 0.00 0.00 0.00 0.00 0.00 0.00 0.00 0.00 0.00 0.00 0.00 0.00 0.00 0.00 0.00 0.00 0.00 0.00 0.00 0.00 0.00 0.00 0.00 0.00 0.00 0.00 0.00 0.00 0.00 0.00 0.00 0.00 0.00 0.00
0.00 0.00 0.00 0.00 0.00 0.00 0.00 0.00 0.00 0.00 0.00 0.00 0.00 0.00 0.00 0.00 0.00 0.00 0.00 0.00 0.00 0.00 0.00 0.00 0.00 0.00 0.00 0.00 0.00 0.00 0.00 0.00 0.00 0.00 0.00 0.00 0.00 0.00 0.00 0.00 0.00 0.00 0.00 0.00
0.00 0.00 0.00 0.00 0.00 0.00 0.00 0.00 0.00 0.00 0.00 0.00 0.00 0.00 0.00 0.00 0.00 0.00 0.00 0.00 0.00 0.00 0.00 0.00 0.00 0.00 0.00 0.00 0.00 0.00 0.00 0.00 0.00 0.00 0.00 0.00 0.00 0.00 0.00 0.00 0.00 0.00 0.00 0.00
0.00 0.00 0.00 0.00 0.00 0.00 0.00 0.00 0.00 0.00 0.00 0.00 0.00 0.00 0.00 0.00 0.00 0.00 0.00 0.00 0.00 0.00 0.00 0.00 0.00 0.00 0.00 0.00 0.00 0.00 0.00 0.00 0.00 0.00 0.00 0.00 0.00 0.00 0.00 0.00 0.00 0.00 0.00 0.00
0.00 0.00 0.00 0.00 0.00 0.00 0.00 0.00 0.00 0.00 0.00 0.00 0.00 0.00 0.00 0.00 0.00 0.00 0.00 0.00 0.00 0.00 0.00 0.00 0.00 0.00 0.00 0.00 0.00 0.00 0.00 0.00 0.00 0.00 0.00 0.00 0.00 0.00 0.00 0.00 0.00 0.00 0.00 0.00
0.00 0.00 0.00 0.00 0.00 0.00 0.00 0.00 0.00 0.00 0.00 0.00 0.00 0.00 0.00 0.00 0.00 0.00 0.00 0.00 0.00 0.00 0.00 0.00 0.00 0.00 0.00 0.00 0.00 0.00 0.00 0.00 0.00 0.00 0.00 0.00 0.00 0.00 0.00 0.00 0.00 0.00 0.00 0.00
0.00 0.00 0.00 0.00 0.00 0.00 0.00 0.00 0.00 0.00 0.00 0.00 0.00 0.00 0.00 0.00 0.00 0.00 0.00 0.00 0.00 0.00 0.00 0.00 0.00 0.00 0.00 0.00 0.00 0.00 0.00 0.00 0.00 0.00 0.00 0.00 0.00 0.00 0.00 0.00 0.00 0.00 0.00 0.00
0.00 0.00 0.00 0.00 0.00 0.00 0.00 0.00 0.00 0.00 0.00 0.00 0.00 0.00 0.00 0.00 0.00 0.00 0.00 0.00 0.00 0.00 0.00 0.00 0.00 0.00 0.00 0.00 0.00 0.00 0.00 0.00 0.00 0.00 0.00 0.00 0.00 0.00 0.00 0.00 0.00 0.01 0.01 0.01
0.00 0.00 0.00 0.00 0.00 0.00 0.00 0.00 0.00 0.00 0.00 0.00 0.00 0.00 0.00 0.00 0.00 0.00 0.00 0.00 0.00 0.00 0.00 0.00 0.00 0.00 0.00 0.00 0.00 0.00 0.00 0.00 0.00 0.00 0.00 0.00 0.00 0.00 0.00 0.01 0.01 0.02 0.02 0.02
0.00 0.00 0.00 0.00 0.00 0.00 0.00 0.00 0.00 0.00 0.00 0.00 0.00 0.00 0.00 0.00 0.00 0.00 0.00 0.00 0.00 0.00 0.00 0.00 0.00 0.00 0.00 0.00 0.00 0.00 0.00 0.00 0.00 0.00 0.00 0.00 0.00 0.00 0.01 0.01 0.01 0.01 0.01 0.02
MSLP
1018.07 1018.00 1017.87 1017.74 1017.71 1017.64 1017.36 1016.75 1015.84 1015.25 1015.52 1014.88 1014.69 1014.87 1015.29 1015.30 1014.74 1014.34 1014.40 1013.90 1014.04 1013.42 1013.35 1013.24 1013.86 1013.82 1014.34 1014.05 1014.68 1015.10 1015.49 1016.25 1016.78 1017.38 1018.04 1018.37 1018.60 1019.11 1019.49 1019.61 1019.85 1020.09 1020.34 1020.73
1018.08 1018.13 1018.35 1018.20 1017.98 1017.69 1017.28 1016.44 1015.94 1015.70 1015.68 1014.90 1014.68 1014.98 1015.47 1015.84 1015.80 1015.53 1015.40 1014.59 1014.04 1013.66 1013.55 1013.55 1013.40 1012.89 1014.12 1015.68 1014.34 1015.19 1015.72 1016.46 1016.90 1017.43 1017.88 1018.25 1018.57 1018.92 1018.93 1019.20 1019.49 1019.86 1020.20 1020.62
1017.96 1018.51 1018.49 1018.28 1017.90 1017.45 1017.27 1017.07 1016.61 1016.37 1015.68 1015.53 1014.81 1014.68 1015.37 1016.01 1015.96 1015.86 1015.85 1015.30 1014.02 1013.47 1014.26 1014.50 1014.72 1015.60 1016.24 1016.13 1016.12 1015.23 1015.59 1016.33 1016.83 1017.50 1018.11 1018.44 1018.71 1019.02 1019.11 1019.20 1019.42 1019.74 1019.88 1020.19
1018.45 1018.59 1018.56 1018.26 1017.97 1018.15 1017.10 1017.55 1017.10 1016.39 1015.13 1014.70 1014.78 1014.95 1015.45 1016.36 1016.75 1016.73 1017.70 1016.63 1015.70 1013.77 1014.61 1014.91 1015.48 1015.74 1014.88 1015.02 1015.72 1015.74 1016.31 1017.12 1017.03 1017.27 1017.77 1017.85 1018.00 1018.18 1018.24 1018.57 1019.04 1019.22 1019.48 1019.76
1018.91 1018.81 1018.69 1018.25 1018.35 1018.43 1017.78 1017.75 1017.20 1016.50 1015.49 1014.98 1015.46 1015.56 1017.03 1016.84 1016.71 1018.17 1018.64 1018.26 1017.13 1015.75 1015.38 1015.60 1015.87 1016.02 1016.26 1016.88 1016.76 1016.68 1016.89 1017.11 1017.73 1017.43 1017.59 1017.72 1017.86 1017.84 1018.06 1018.42 1018.66 1018.81 1019.05 1019.43
1019.04 1019.40 1019.36 1019.01 1018.58 1018.46 1018.12 1017.70 1017.16 1016.59 1015.94 1016.13 1016.92 1016.90 1017.77 1018.88 1020.04 1019.51 1019.31 1019.04 1018.16 1017.26 1017.26 1016.97 1016.72 1016.63 1016.52 1016.77 1016.58 1017.03 1016.60 1017.27 1017.60 1017.80 1017.80 1017.86 1018.08 1018.02 1018.02 1018.17 1018.30 1018.42 1018.67 1018.95
1018.92 1019.20 1019.19 1019.47 1018.72 1018.37 1017.96 1017.20 1016.93 1016.58 1016.33 1016.89 1017.64 1017.77 1019.01 1019.87 1020.88 1021.13 1020.58 1020.10 1019.45 1018.88 1018.52 1018.26 1017.91 1017.44 1017.51 1016.96 1016.57 1016.46 1016.87 1017.08 1017.42 1017.92 1018.13 1018.15 1018.13 1017.95 1017.80 1017.83 1017.95 1018.10 1018.27 1018.44
1019.55 1019.43 1019.62 1019.38 1019.57 1019.47 1019.21 1018.95 1018.28 1017.68 1017.45 1017.63 1018.16 1018.60 1020.21 1021.08 1021.85 1022.02 1021.92 1021.53 1020.94 1020.45 1020.26 1019.72 1019.21 1018.87 1018.55 1018.16 1017.68 1017.68 1016.98 1017.10 1017.31 1017.54 1017.62 1017.84 1017.80 1017.79 1017.77 1017.68 1017.72 1017.78 1017.85 1017.87
1019.93 1019.84 1019.99 1020.11 1019.98 1020.05 1019.22 1019.38 1019.90 1018.98 1018.99 1018.45 1019.00 1019.88 1020.85 1021.61 1022.42 1022.67 1022.60 1022.45 1022.17 1021.88 1021.57 1021.19 1020.99 1020.54 1020.04 1019.48 1019.16 1018.56 1018.03 1018.15 1017.86 1017.58 1017.58 1017.50 1017.49 1017.69 1017.41 1017.60 1017.63 1017.64 1017.47 1017.51
1020.64 1020.30 1020.30 1020.17 1020.45 1020.28 1019.87 1020.42 1020.01 1019.41 1018.78 1018.51 1019.00 1019.71 1020.32 1021.99 1023.23 1023.73 1024.00 1024.06 1023.79 1023.49 1023.10 1022.73 1022.29 1021.81 1021.30 1020.94 1020.61 1019.93 1019.72 1019.31 1019.11 1018.65 1017.96 1017.53 1017.56 1017.66 1017.62 1017.68 1017.50 1017.41 1017.32 1017.30
1020.81 1020.68 1020.19 1020.22 1020.37 1020.38 1020.23 1019.99 1020.37 1020.30 1019.80 1019.18 1019.24 1020.06 1022.28 1023.52 1024.42 1024.81 1024.98 1025.07 1025.12 1024.86 1024.33 1023.97 1023.83 1023.32 1023.04 1022.64 1021.69 1021.20 1020.47 1020.11 1019.50 1019.27 1018.38 1018.07 1017.99 1017.72 1017.42 1017.26 1017.02 1016.97 1016.84 1016.91
1021.20 1020.91 1020.23 1020.02 1020.51 1020.96 1020.74 1020.48 1020.31 1020.31 1020.37 1020.46 1020.72 1021.64 1023.55 1024.55 1025.35 1025.79 1026.01 1026.20 1025.99 1025.73 1025.49 1025.18 1024.65 1024.45 1024.05 1023.63 1023.15 1022.67 1022.04 1021.51 1020.93 1020.52 1019.81 1019.09 1018.44 1017.91 1017.44 1017.03 1016.91 1016.69 1016.60 1016.79
1021.28 1021.14 1020.51 1020.10 1020.69 1020.74 1020.66 1020.73 1020.83 1020.85 1021.00 1020.80 1021.37 1022.19 1024.21 1025.18 1025.85 1026.32 1026.57 1026.62 1026.54 1026.47 1026.24 1025.91 1025.62 1025.32 1024.86 1024.59 1024.12 1023.61 1023.07 1022.59 1022.09 1021.34 1020.57 1020.05 1019.58 1019.00 1018.20 1017.55 1017.06 1016.73 1016.36 1016.00
1021.66 1021.25 1020.68 1020.33 1019.97 1020.56 1020.47 1020.78 1021.06 1021.13 1021.27 1020.64 1020.90 1022.60 1024.49 1025.56 1026.26 1026.82 1027.18 1027.44 1027.33 1027.18 1026.83 1026.47 1026.09 1025.89 1025.70 1025.47 1024.88 1024.30 1023.70 1023.23 1022.56 1022.00 1021.30 1020.55 1020.11 1019.60 1019.01 1018.23 1017.46 1016.84 1016.20 1015.80
1022.06 1021.43 1021.23 1020.74 1020.61 1020.73 1020.68 1020.65 1021.02 1021.47 1021.50 1021.57 1021.49 1022.96 1025.16 1026.59 1027.38 1027.92 1028.28 1028.30 1028.15 1028.09 1027.88 1027.47 1026.89 1026.37 1025.90 1025.45 1025.17 1025.02 1024.61 1023.94 1023.26 1022.39 1021.56 1020.90 1020.32 1019.62 1018.78 1018.13 1017.61 1016.98 1016.29 1015.95
1022.54 1021.89 1021.78 1021.03 1020.68 1020.98 1020.93 1020.92 1021.11 1021.76 1022.15 1022.55 1023.32 1024.71 1026.31 1027.31 1027.96 1028.47 1029.08 1029.23 1028.97 1028.74 1028.57 1028.28 1027.98 1027.48 1026.76 1026.17 1025.62 1024.93 1024.33 1023.96 1023.53 1022.80 1022.21 1021.51 1020.69 1019.85 1018.94 1018.02 1017.36 1016.80 1016.21 1015.44
1022.89 1022.40 1022.20 1021.05 1021.28 1021.41 1021.26 1021.81 1022.30 1023.02 1023.82 1024.24 1024.71 1025.92 1027.46 1027.80 1028.31 1029.15 1029.73 1029.73 1029.56 1029.49 1029.23 1028.87 1028.53 1028.19 1027.80 1027.30 1026.48 1025.60 1024.94 1024.28 1023.52 1022.86 1022.18 1021.65 1021.26 1020.67 1020.01 1019.16 1018.22 1017.09 1016.05 1015.38
1022.76 1022.84 1022.69 1021.78 1021.75 1022.13 1022.94 1023.45 1023.78 1024.28 1025.65 1026.38 1027.08 1027.91 1028.62 1029.13 1029.42 1029.72 1030.24 1030.14 1030.05 1030.06 1029.80 1029.46 1029.08 1028.57 1028.21 1027.73 1027.22 1026.68 1025.74 1024.71 1023.95 1023.22 1022.60 1021.87 1021.19 1020.45 1019.66 1018.92 1018.19 1017.42 1016.55 1015.46
1023.16 1022.98 1022.59 1022.36 1022.22 1022.12 1023.95 1024.84 1025.51 1025.86 1027.18 1028.01 1028.44 1029.14 1029.53 1029.76 1029.77 1030.27 1030.61 1030.91 1030.88 1030.74 1030.40 1029.95 1029.56 1029.14 1028.56 1027.97 1027.49 1026.93 1026.14 1025.44 1024.69 1023.72 1022.84 1022.10 1021.39 1020.46 1019.59 1018.51 1017.66 1017.04 1016.12 1015.12
1023.52 1023.43 1023.35 1023.48 1023.34 1023.07 1024.48 1026.14 1027.10 1027.50 1027.88 1029.01 1029.59 1030.03 1030.45 1030.41 1029.71 1029.62 1030.93 1031.15 1031.07 1031.04 1030.86 1030.49 1029.99 1029.42 1028.67 1028.15 1027.70 1026.92 1026.03 1025.24 1024.47 1024.06 1023.43 1022.63 1021.77 1020.52 1019.29 1018.36 1017.49 1016.76 1015.87 1014.60
1023.92 1024.13 1023.88 1024.02 1024.48 1024.66 1026.57 1027.65 1028.27 1029.05 1029.90 1030.25 1030.81 1031.21 1031.34 1031.15 1031.32 1031.21 1031.26 1031.21 1031.27 1031.12 1030.84 1030.48 1029.96 1029.52 1028.95 1028.32 1027.71 1027.02 1026.27 1025.42 1024.89 1024.14 1023.25 1022.41 1021.48 1020.34 1019.20 1018.18 1017.45 1016.46 1015.41 1014.34
1023.52 1024.15 1024.66 1025.28 1026.32 1027.39 1028.47 1029.01 1029.74 1030.53 1030.84 1031.33 1031.79 1032.06 1032.07 1031.98 1032.01 1031.93 1031.68 1031.41 1031.18 1030.89 1030.67 1030.43 1029.86 1029.25 1028.72 1028.32 1027.81 1027.11 1026.28 1025.58 1024.88 1023.98 1022.87 1021.65 1020.70 1019.61 1018.46 1017.34 1016.22 1015.37 1014.54 1013.48
1024.94 1025.50 1025.83 1027.08 1027.88 1029.33 1030.28 1030.71 1031.47 1031.70 1031.83 1032.30 1032.53 1032.77 1032.75 1032.54 1032.34 1032.27 1032.09 1031.88 1031.55 1031.30 1030.92 1030.51 1029.93 1029.32 1028.74 1028.27 1027.85 1027.09 1026.24 1025.52 1024.69 1023.84 1022.66 1021.50 1020.28 1019.09 1017.91 1016.53 1015.26 1014.21 1013.40 1012.50
1026.45 1027.27 1027.48 1028.26 1029.88 1030.69 1031.55 1032.16 1032.45 1032.71 1032.94 1033.28 1033.44 1033.32 1033.20 1033.01 1032.75 1032.48 1032.27 1032.09 1031.82 1031.48 1031.08 1030.59 1030.05 1029.35 1028.77 1028.23 1027.70 1027.08 1026.27 1025.48 1024.60 1023.61 1022.51 1021.37 1020.09 1018.68 1017.45 1016.21 1014.88 1013.44 1012.50 1011.30
1028.71 1028.93 1029.39 1030.04 1031.00 1031.91 1032.56 1032.98 1033.25 1033.43 1033.61 1033.62 1033.66 1033.58 1033.39 1033.22 1032.89 1032.71 1032.42 1032.12 1031.79 1031.52 1031.07 1030.73 1030.15 1029.44 1028.73 1028.14 1027.56 1026.93 1026.21 1025.38 1024.48 1023.57 1022.35 1021.03 1019.69 1018.44 1017.04 1015.70 1014.28 1013.07 1011.97 1010.88
1030.45 1030.89 1031.05 1031.15 1032.06 1032.51 1032.90 1033.48 1033.77 1033.78 1033.85 1033.81 1033.70 1033.52 1033.46 1033.41 1033.14 1032.92 1032.56 1032.18 1031.80 1031.29 1030.93 1030.58 1030.13 1029.53 1028.76 1028.04 1027.26 1026.68 1026.08 1025.35 1024.43 1023.24 1021.98 1020.90 1019.33 1017.99 1016.55 1014.89 1013.16 1012.21 1010.98 1009.73
Thickness
5584 5581 5569 5568 5562 5556 5549 5546 5549 5551 5539 5541 5535 5530 5526 5517 5533 5537 5538 5547 5550 5558 5569 5582 5581 5588 5594 5598 5604 5610 5615 5615 5617 5617 5616 5619 5622 5622 5622 5625 5626 5628 5629 5630
5585 5575 5568 5562 5557 5555 5552 5559 5555 5550 5541 5546 5543 5536 5533 5527 5530 5531 5531 5544 5556 5561 5570 5575 5583 5593 5591 5584 5593 5601 5603 5604 5607 5609 5611 5613 5614 5615 5617 5618 5620 5621 5622 5622
5583 5572 5563 5559 5561 5560 5557 5551 5547 5539 5544 5541 5548 5546 5538 5532 5535 5537 5534 5541 5561 5569 5563 5567 5576 5569 5564 5569 5570 5594 5600 5600 5604 5602 5601 5603 5606 5608 5610 5613 5615 5615 5616 5617
5575 5568 5561 5562 5561 5552 5564 5547 5542 5544 5559 5552 5556 5542 5540 5535 5532 5535 5525 5520 5539 5567 5566 5569 5569 5567 5579 5579 5576 5583 5591 5587 5595 5598 5599 5602 5604 5606 5609 5609 5609 5610 5611 5611
5572 5567 5563 5566 5558 5550 5554 5545 5545 5547 5558 5562 5549 5547 5532 5538 5537 5527 5526 5526 5538 5546 5563 5566 5568 5569 5569 5566 5569 5576 5581 5584 5578 5587 5591 5594 5596 5600 5603 5603 5604 5606 5607 5607
5569 5560 5556 5557 5554 5551 5550 5550 5551 5552 5557 5541 5533 5542 5533 5521 5513 5520 5526 5529 5538 5548 5549 5552 5557 5564 5569 5570 5573 5570 5579 5577 5577 5578 5580 5585 5585 5589 5592 5595 5597 5599 5600 5600
5573 5565 5563 5551 5558 5557 5556 5562 5558 5554 5548 5542 5535 5539 5529 5525 5511 5507 5517 5525 5531 5538 5540 5544 5550 5559 5560 5567 5573 5574 5573 5574 5572 5570 5567 5569 5573 5578 5582 5585 5587 5590 5592 5594
5560 5557 5558 5558 5551 5546 5542 5544 5546 5543 5545 5545 5541 5535 5522 5517 5510 5510 5510 5515 5520 5525 5527 5533 5541 5547 5549 5553 5559 5559 5568 5569 5566 5567 5566 5564 5565 5570 5572 5576 5577 5579 5581 5584
5563 5561 5554 5549 5548 5543 5550 5542 5533 5539 5531 5542 5535 5530 5523 5518 5510 5509 5507 5507 5509 5512 5515 5519 5521 5527 5533 5540 5543 5549 5555 5552 5555 5559 5559 5560 5559 5558 5562 5562 5566 5569 5573 5575
5558 5554 5552 5551 5543 5543 5546 5534 5540 5539 5543 5545 5545 5540 5545 5518 5502 5497 5493 5493 5495 5499 5502 5505 5511 5515 5520 5523 5525 5530 5531 5535 5538 5541 5548 5554 5551 5550 5550 5551 5554 5559 5560 5563
5557 5554 5561 5550 5548 5545 5546 5545 5533 5531 5535 5546 5550 5552 5515 5497 5490 5488 5488 5487 5486 5488 5493 5496 5496 5500 5502 5505 5514 5517 5521 5522 5525 5527 5537 5541 5541 5543 5545 5546 5547 5549 5551 5551
5552 5552 5553 5556 5544 5535 5538 5540 5540 5535 5534 5528 5533 5538 5500 5492 5485 5484 5483 5479 5479 5479 5481 5484 5489 5489 5491 5493 5494 5497 5501 5505 5510 5511 5516 5522 5527 5532 5536 5539 5540 5541 5541 5540
5552 5550 5550 5554 5548 5539 5539 5536 5533 5532 5527 5529 5532 5539 5492 5487 5484 5479 5474 5472 5471 5471 5471 5474 5475 5474 5477 5479 5482 5484 5486 5488 5490 5495 5500 5503 5506 5511 5517 5522 5525 5527 5530 5535
5546 5547 5552 5552 5557 5545 5542 5535 5530 5531 5525 5540 5540 5514 5488 5480 5474 5469 5463 5459 5459 5458 5458 5460 5461 5463 5464 5463 5466 5468 5472 5474 5477 5479 5483 5487 5490 5493 5496 5502 5508 5512 5517 5521
5540 5543 5537 5543 5542 5539 5536 5536 5533 5521 5526 5526 5537 5524 5481 5464 5457 5451 5444 5443 5443 5439 5439 5439 5441 5445 5448 5450 5453 5452 5452 5454 5457 5462 5467 5472 5475 5480 5486 5490 5493 5496 5501 5502
5526 5538 5526 5529 5536 5528 5529 5536 5531 5525 5521 5520 5519 5490 5460 5454 5450 5441 5430 5427 5426 5425 5423 5422 5421 5422 5426 5427 5429 5433 5439 5441 5442 5445 5447 5450 5455 5461 5468 5476 5480 5484 5489 5496
5524 5527 5522 5536 5523 5527 5541 5524 5513 5497 5484 5489 5499 5476 5446 5447 5441 5428 5418 5416 5413 5410 5407 5405 5405 5404 5403 5402 5406 5410 5414 5417 5423 5427 5430 5433 5434 5437 5439 5444 5451 5460 5471 5477
5517 5512 5514 5520 5521 5525 5487 5484 5487 5487 5459 5453 5445 5435 5426 5419 5416 5411 5401 5400 5398 5393 5390 5388 5386 5384 5382 5382 5382 5382 5386 5393 5399 5404 5407 5411 5414 5419 5425 5430 5434 5438 5445 5454
5500 5507 5509 5509 5513 5520 5466 5466 5468 5469 5450 5428 5425 5413 5406 5400 5400 5390 5385 5378 5373 5370 5369 5368 5366 5364 5363 5362 5360 5360 5362 5363 5365 5372 5379 5385 5390 5397 5403 5411 5417 5421 5428 5437
5480 5488 5493 5478 5494 5521 5476 5445 5433 5432 5461 5409 5400 5395 5384 5381 5407 5396 5364 5358 5354 5349 5344 5341 5340 5340 5341 5339 5336 5335 5337 5339 5343 5344 5347 5351 5357 5369 5381 5389 5396 5401 5407 5420
5475 5470 5477 5481 5486 5492 5432 5419 5414 5444 5431 5387 5377 5369 5362 5363 5355 5347 5341 5337 5331 5326 5323 5322 5319 5315 5315 5315 5314 5312 5312 5312 5310 5310 5312 5317 5327 5342 5352 5362 5369 5378 5387 5397
5487 5477 5467 5464 5463 5469 5398 5400 5418 5383 5371 5363 5354 5346 5340 5336 5328 5322 5318 5313 5307 5303 5299 5296 5294 5292 5290 5288 5287 5287 5289 5288 5287 5289 5292 5297 5302 5309 5318 5333 5347 5356 5366 5378
5472 5452 5463 5446 5435 5382 5372 5369 5358 5353 5349 5338 5331 5323 5316 5310 5306 5298 5293 5288 5284 5279 5273 5268 5265 5263 5260 5259 5257 5260 5262 5262 5265 5266 5270 5275 5280 5284 5292 5303 5312 5327 5339 5350
5418 5402 5421 5410 5372 5360 5349 5342 5336 5329 5321 5311 5302 5297 5291 5285 5280 5274 5267 5260 5254 5249 5245 5242 5239 5237 5235 5232 5230 5232 5236 5239 5243 5248 5253 5258 5264 5270 5275 5282 5291 5302 5308 5321
5388 5383 5382 5370 5353 5339 5328 5320 5312 5304 5295 5289 5281 5274 5268 5260 5254 5247 5240 5234 5228 5223 5220 5216 5214 5215 5217 5218 5217 5219 5222 5226 5230 5233 5239 5247 5254 5259 5264 5270 5277 5286 5292 5299
5355 5352 5363 5363 5331 5322 5315 5300 5289 5283 5273 5265 5258 5252 5245 5236 5228 5220 5214 5209 5205 5203 5202 5200 5199 5200 5203 5206 5208 5210 5212 5214 5218 5224 5230 5235 5243 5249 5255 5262 5274 5275 5284 5293